Main page
METAR-TAF:

METAR-TAF

Airports :

Plzeň, Czech Republic

latitude: 49-40-31N, longitude: 13-16-29E, elevation: 362 m

Current weather observation

The report was made 50 minutes ago, at 10:00 UTC
Wind 4 kt from the West, varying between South/Southwest and West/Northwest
Temperature 3°C
Humidity 75%
Pressure 1006 hPa
Visibility 10 km or more
Few clouds at a height of 1700 ft

METAR: LKLN 161000Z AUTO 26004KT 210V300 9999 FEW017 03/M01 Q1006

Time: 11:50 (10:50 UTC)


TAF: missing

Weather observations and forecasts of more than 4000 airports (METAR and TAF reports).

The available stations are represented by yellow and red dots on the map.

Hover mouse over dot to see the name of the station.

Then click to see weather observations and forecasts.

To change the map : click on the green buttons with a black cross to zoom in, on the green button with a dash to zoom out, or on the green arrows for adjacent maps.


METAR-TAF: